Visibility
15.0 15.0 15.0 15.0 15.0 15.0 15.0 15.0 15.0 15.0 15.0 15.0 15.0 15.0 15.0 15.0 15.0 15.0 15.0 15.0 15.0 14.9 15.0 15.0 15.0 15.0 15.0 15.0 11.9 15.0 15.0 10.5 10.4 12.4 3.2 9.0 14.7 12.1 10.5 15.0 15.0 11.8 3.6 0.4 15.0 0.8 4.5 2.0 0.8 0.1 0.0 15.0 15.0 15.0
15.0 15.0 15.0 15.0 15.0 15.0 15.0 15.0 15.0 15.0 15.0 15.0 15.0 15.0 15.0 15.0 15.0 15.0 15.0 15.0 15.0 15.0 15.0 15.0 15.0 15.0 15.0 15.0 15.0 15.0 15.0 15.0 15.0 14.0 9.5 15.0 2.9 15.0 15.0 15.0 15.0 12.5 13.8 0.1 0.2 15.0 13.4 0.2 0.1 13.3 15.0 15.0 15.0 15.0
15.0 15.0 15.0 15.0 15.0 15.0 15.0 15.0 15.0 15.0 15.0 15.0 14.2 15.0 15.0 15.0 15.0 15.0 15.0 15.0 15.0 3.5 12.6 15.0 15.0 15.0 15.0 15.0 15.0 11.1 15.0 15.0 15.0 15.0 14.1 4.3 0.3 13.1 6.4 15.0 15.0 15.0 15.0 0.8 0.1 7.3 0.0 0.1 15.0 15.0 15.0 15.0 15.0 15.0
15.0 15.0 15.0 15.0 15.0 15.0 15.0 15.0 15.0 14.8 15.0 15.0 15.0 15.0 14.9 14.3 12.6 15.0 15.0 15.0 15.0 15.0 3.2 15.0 15.0 15.0 15.0 15.0 15.0 15.0 15.0 15.0 15.0 15.0 1.0 0.2 0.2 15.0 15.0 15.0 15.0 15.0 6.6 0.4 0.1 1.5 0.1 15.0 15.0 15.0 15.0 15.0 15.0 15.0
15.0 15.0 15.0 15.0 15.0 15.0 15.0 15.0 15.0 11.7 10.1 15.0 15.0 15.0 15.0 9.4 10.9 15.0 15.0 15.0 15.0 15.0 7.1 9.6 15.0 15.0 15.0 15.0 15.0 15.0 15.0 15.0 15.0 5.4 0.1 0.5 15.0 7.0 15.0 15.0 15.0 14.2 0.2 0.1 2.0 11.4 6.0 14.4 15.0 15.0 15.0 15.0 15.0 15.0
15.0 15.0 15.0 15.0 15.0 15.0 15.0 15.0 10.7 14.3 9.3 8.3 15.0 15.0 14.7 15.0 14.6 15.0 15.0 15.0 15.0 15.0 0.1 1.2 15.0 15.0 15.0 15.0 15.0 15.0 15.0 15.0 15.0 15.0 8.3 15.0 15.0 15.0 1.2 1.1 15.0 15.0 15.0 15.0 1.1 15.0 15.0 15.0 15.0 15.0 15.0 15.0 15.0 15.0
15.0 15.0 15.0 15.0 15.0 15.0 15.0 15.0 15.0 8.9 11.7 4.7 12.1 6.2 15.0 15.0 15.0 15.0 15.0 15.0 15.0 6.4 2.7 13.7 15.0 15.0 15.0 15.0 15.0 15.0 15.0 15.0 15.0 15.0 14.5 15.0 15.0 4.3 3.3 11.2 2.0 8.3 15.0 4.5 8.4 15.0 13.6 15.0 15.0 15.0 15.0 15.0 15.0 15.0
15.0 15.0 15.0 15.0 15.0 15.0 15.0 15.0 15.0 15.0 13.6 6.9 11.8 13.5 15.0 11.2 15.0 15.0 15.0 10.9 15.0 15.0 9.5 0.2 11.0 15.0 15.0 15.0 13.5 10.4 0.4 15.0 14.0 15.0 12.9 15.0 9.3 15.0 0.4 15.0 15.0 15.0 11.3 15.0 15.0 14.5 14.7 15.0 15.0 15.0 15.0 15.0 15.0 15.0
15.0 15.0 15.0 15.0 15.0 15.0 15.0 15.0 15.0 15.0 15.0 15.0 15.0 15.0 15.0 11.8 12.8 15.0 15.0 15.0 15.0 15.0 2.1 1.5 3.4 15.0 15.0 15.0 5.2 8.4 0.1 0.1 14.5 1.7 5.7 6.4 1.4 0.5 14.4 15.0 15.0 15.0 0.3 0.2 15.0 15.0 15.0 15.0 15.0 15.0 15.0 15.0 15.0 15.0
15.0 15.0 15.0 15.0 15.0 15.0 15.0 15.0 15.0 15.0 15.0 15.0 15.0 15.0 15.0 15.0 15.0 15.0 15.0 15.0 0.4 3.6 0.1 0.1 15.0 1.4 14.5 7.8 0.1 0.1 0.1 0.2 0.1 2.3 9.8 0.4 15.0 15.0 14.4 2.8 0.8 0.1 8.3 15.0 14.5 15.0 15.0 15.0 12.6 8.6 15.0 15.0 0.9 0.2
15.0 15.0 15.0 15.0 15.0 15.0 15.0 15.0 15.0 15.0 15.0 15.0 15.0 15.0 15.0 15.0 11.8 13.5 2.1 0.1 0.1 0.2 4.9 7.6 1.8 0.1 0.4 0.1 0.1 0.4 0.5 0.1 0.1 0.0 0.2 0.2 0.1 0.0 10.7 1.6 0.2 0.2 1.0 15.0 15.0 15.0 15.0 15.0 5.3 0.2 0.3 0.2 10.6 2.9
15.0 15.0 15.0 15.0 15.0 15.0 15.0 15.0 15.0 15.0 15.0 15.0 15.0 15.0 4.4 0.0 0.1 0.1 0.3 4.2 0.8 12.9 15.0 8.9 2.0 0.1 0.1 0.0 0.1 0.4 0.3 2.5 5.9 0.1 0.1 0.1 0.2 15.0 15.0 15.0 15.0 15.0 15.0 15.0 15.0 15.0 15.0 15.0 15.0 0.1 0.0 0.0 0.1 0.1
15.0 15.0 15.0 15.0 15.0 15.0 15.0 15.0 15.0 15.0 15.0 15.0 2.3 0.0 11.8 12.7 0.1 0.4 1.1 3.9 0.4 1.5 0.6 0.0 0.1 0.0 0.0 0.0 0.1 0.1 0.1 11.5 15.0 1.9 0.9 0.1 2.5 15.0 15.0 15.0 15.0 15.0 15.0 15.0 15.0 15.0 13.3 12.8 15.0 8.8 0.0 0.0 0.0 0.1
15.0 15.0 15.0 15.0 15.0 15.0 15.0 15.0 15.0 15.0 15.0 1.1 0.2 0.5 1.4 3.1 1.9 15.0 1.4 0.8 9.5 0.1 0.2 0.1 0.3 0.0 9.4 0.1 0.1 0.1 15.0 15.0 8.4 14.8 0.1 0.3 0.1 0.0 8.2 15.0 13.5 14.2 15.0 15.0 15.0 9.1 15.0 15.0 15.0 15.0 9.9 0.7 0.1 0.0
15.0 15.0 15.0 15.0 15.0 15.0 15.0 15.0 15.0 15.0 15.0 8.2 0.1 1.5 0.3 12.1 15.0 15.0 1.3 0.1 7.8 0.5 0.2 0.5 0.7 0.0 0.1 0.2 7.6 14.9 15.0 7.4 0.3 0.1 1.4 1.6 0.0 0.1 1.5 15.0 7.6 3.0 15.0 15.0 15.0 15.0 15.0 6.7 9.5 9.5 15.0 15.0 5.4 0.1
15.0 15.0 15.0 15.0 15.0 15.0 15.0 15.0 15.0 15.0 5.3 3.6 2.0 3.2 15.0 2.3 13.8 15.0 10.1 11.9 15.0 15.0 15.0 0.2 0.1 0.2 12.0 15.0 15.0 8.6 15.0 0.7 0.1 0.6 14.6 9.2 0.5 0.0 0.2 6.4 15.0 15.0 15.0 15.0 15.0 15.0 15.0 15.0 0.6 0.1 13.0 15.0 0.2 5.9
15.0 15.0 15.0 15.0 15.0 15.0 15.0 15.0 1.2 0.0 0.0 1.6 13.0 15.0 10.2 7.8 13.8 15.0 15.0 15.0 15.0 15.0 6.3 5.0 1.0 0.8 0.2 0.1 1.8 0.4 0.1 0.1 0.1 0.3 0.1 0.1 0.1 0.0 0.0 0.1 2.7 15.0 15.0 15.0 15.0 15.0 15.0 15.0 15.0 14.9 0.1 2.3 3.9 15.0
15.0 15.0 15.0 15.0 15.0 15.0 15.0 15.0 0.1 0.1 1.1 15.0 2.2 14.1 8.4 15.0 15.0 15.0 15.0 15.0 15.0 8.9 0.7 0.9 0.1 2.2 0.3 1.0 7.3 0.6 1.0 0.2 0.1 0.1 0.0 15.0 15.0 5.9 0.1 0.2 14.3 15.0 15.0 15.0 15.0 15.0 15.0 15.0 15.0 15.0 1.3 0.1 12.7 15.0
15.0 15.0 15.0 15.0 15.0 15.0 15.0 0.2 0.2 4.6 15.0 15.0 15.0 15.0 15.0 15.0 15.0 15.0 15.0 15.0 15.0 15.0 1.4 1.3 0.5 0.5 8.4 0.7 0.3 0.1 0.1 3.4 15.0 15.0 15.0 15.0 15.0 15.0 15.0 15.0 15.0 15.0 15.0 3.0 11.3 11.2 15.0 15.0 15.0 9.6 0.0 0.0 0.0 3.1
15.0 15.0 15.0 15.0 15.0 15.0 15.0 15.0 3.2 4.3 6.0 14.6 15.0 15.0 15.0 15.0 15.0 4.4 6.6 15.0 15.0 1.3 0.4 1.3 10.2 15.0 15.0 15.0 0.5 1.0 0.2 10.1 15.0 14.7 15.0 15.0 15.0 15.0 15.0 15.0 15.0 15.0 15.0 15.0 15.0 15.0 14.8 6.4 15.0 15.0 0.1 0.0 0.0 0.0
15.0 15.0 15.0 15.0 15.0 15.0 15.0 15.0 14.8 0.7 15.0 15.0 15.0 15.0 15.0 0.5 0.2 0.1 0.2 14.8 1.0 0.1 0.1 0.1 0.1 0.2 0.9 7.2 0.1 0.1 0.1 15.0 15.0 12.5 8.0 7.7 15.0 15.0 15.0 12.9 15.0 15.0 15.0 15.0 15.0 15.0 15.0 14.9 15.0 1.3 0.6 14.8 0.1 0.0
15.0 15.0 15.0 15.0 15.0 15.0 14.9 15.0 15.0 15.0 15.0 15.0 15.0 15.0 15.0 15.0 15.0 13.2 7.3 5.8 0.1 0.1 0.1 0.1 0.1 0.1 0.1 0.1 0.1 0.1 0.1 0.1 7.4 15.0 15.0 13.4 3.5 3.3 8.8 15.0 13.3 12.8 15.0 15.0 14.9 1.3 6.0 14.7 15.0 5.8 0.3 13.1 14.0 2.1
15.0 15.0 15.0 15.0 11.1 12.5 14.3 15.0 15.0 15.0 15.0 15.0 15.0 15.0 15.0 15.0 15.0 15.0 3.4 0.3 0.1 0.1 0.1 0.1 0.1 0.1 0.1 0.1 0.1 0.3 1.6 8.3 8.4 9.4 13.8 13.7 15.0 15.0 15.0 15.0 15.0 1.1 1.0 13.5 8.2 0.7 0.3 8.4 12.0 0.6 2.0 3.7 13.7 15.0
15.0 15.0 15.0 15.0 15.0 15.0 15.0 15.0 15.0 15.0 15.0 15.0 15.0 15.0 15.0 15.0 15.0 15.0 0.2 0.8 0.2 0.3 0.7 1.5 3.3 12.1 12.3 15.0 5.1 3.0 15.0 15.0 15.0 15.0 15.0 15.0 15.0 15.0 15.0 15.0 7.0 0.2 0.1 0.3 0.4 0.8 12.8 4.6 4.8 3.7 1.3 0.5 2.0 13.5
15.0 15.0 15.0 15.0 15.0 14.4 15.0 15.0 15.0 15.0 15.0 15.0 15.0 15.0 15.0 15.0 15.0 1.7 0.2 0.2 0.4 0.5 3.5 15.0 15.0 15.0 15.0 15.0 15.0 15.0 15.0 15.0 1.5 1.0 15.0 15.0 15.0 14.3 14.5 15.0 15.0 15.0 12.8 1.5 4.6 1.2 0.8 11.4 13.8 6.8 1.9 0.6 0.4 1.0
15.0 15.0 15.0 15.0 15.0 15.0 15.0 15.0 15.0 15.0 11.6 15.0 15.0 15.0 14.8 5.6 5.7 0.4 0.4 0.2 0.5 0.5 0.9 1.8 2.2 12.6 15.0 15.0 15.0 11.6 15.0 15.0 10.1 9.5 15.0 15.0 15.0 0.8 0.6 0.5 3.9 11.0 15.0 2.4 0.5 0.5 1.9 6.9 1.4 2.3 1.7 11.4 1.8 0.7
15.0 15.0 15.0 15.0 15.0 15.0 15.0 15.0 15.0 15.0 15.0 4.4 0.7 7.9 2.4 0.5 0.3 0.2 0.5 0.3 0.2 0.3 13.3 15.0 15.0 15.0 13.0 15.0 15.0 15.0 15.0 15.0 2.7 9.3 15.0 15.0 15.0 15.0 12.5 0.3 0.9 5.9 10.1 8.4 1.3 0.4 0.2 0.3 0.4 0.7 1.0 4.4 6.6 0.2
15.0 15.0 15.0 15.0 15.0 15.0 15.0 13.5 5.5 15.0 1.0 0.7 11.8 2.6 3.8 0.4 0.2 0.2 0.2 0.3 4.9 15.0 15.0 15.0 15.0 15.0 14.9 15.0 15.0 4.1 9.8 15.0 6.6 15.0 15.0 15.0 15.0 15.0 15.0 14.8 15.0 12.5 1.9 3.6 0.8 0.7 0.4 0.2 0.2 0.3 0.3 0.7 2.0 10.2
15.0 15.0 15.0 15.0 15.0 9.4 7.9 15.0 7.7 6.3 15.0 13.5 2.2 1.7 0.2 0.5 0.2 0.6 0.2 2.1 6.5 15.0 15.0 14.7 15.0 7.6 12.7 15.0 15.0 14.6 7.2 10.6 10.1 5.5 5.6 6.6 14.9 15.0 15.0 15.0 9.3 11.8 1.6 0.6 3.6 8.9 4.9 0.5 0.2 0.2 0.2 0.3 1.9 1.5
15.0 15.0 15.0 14.5 15.0 15.0 15.0 9.8 6.8 15.0 12.4 14.4 13.7 2.1 0.7 0.2 0.2 5.0 7.1 11.2 15.0 15.0 15.0 4.7 4.2 3.1 2.2 0.7 0.8 8.9 15.0 6.3 9.0 5.5 1.1 0.3 0.7 2.5 6.4 3.0 1.6 2.4 1.4 0.4 0.7 2.5 15.0 15.0 7.7 11.7 4.7 3.4 3.6 0.1
13.7 9.3 11.7 8.5 8.4 15.0 15.0 7.0 9.9 11.4 6.6 4.4 0.9 1.1 0.2 0.2 0.1 0.2 1.9 4.1 4.1 11.1 4.1 4.9 11.5 12.1 4.1 3.7 4.3 3.4 3.1 15.0 15.0 14.5 1.7 0.2 0.9 0.7 0.8 1.3 1.5 0.3 0.3 0.4 0.5 0.6 0.4 0.6 1.9 1.2 2.0 0.6 0.1 0.1
14.5 14.6 8.3 14.9 14.1 15.0 14.9 15.0 15.0 6.4 4.2 0.4 0.2 0.9 0.2 0.1 0.2 0.3 0.2 11.0 4.6 4.1 3.5 2.0 2.4 3.3 14.8 15.0 15.0 15.0 6.0 1.3 1.6 0.3 0.8 0.6 0.2 0.7 1.0 0.8 0.5 0.3 0.3 0.4 0.4 0.2 0.2 0.2 0.3 0.2 0.1 0.1 0.1 0.1
8.4 12.2 8.3 15.0 15.0 15.0 15.0 15.0 15.0 8.6 5.9 0.8 2.5 1.3 0.2 5.5 2.4 14.1 0.7 8.3 13.6 3.9 2.6 2.7 4.0 15.0 15.0 7.4 10.2 14.2 15.0 6.5 5.8 5.9 7.0 7.0 2.1 0.5 0.2 0.2 0.2 0.4 0.4 0.3 0.3 0.2 0.2 0.2 0.1 0.1 0.1 0.1 0.1 0.2